�������l�o���
Date,Time,MP-1(��Sv/h),MP-2(��Sv/h),MP-3(��Sv/h),MP-4(��Sv/h),MP-5(��Sv/h),MP-6(��Sv/h),MP-7(��Sv/h),����,����(m/s),���J
2018/04/06,00:00,0.328,0.211,0.340,0.324,0.307,0.169,0.101,��쐼,3.8,��
2018/04/06,00:10,0.328,0.210,0.342,0.324,0.307,0.169,0.101,��쐼,4.2,��
2018/04/06,00:20,0.327,0.210,0.340,0.325,0.307,0.168,0.101,��,5.7,��
2018/04/06,00:30,0.328,0.210,0.342,0.325,0.306,0.167,0.101,��,5.0,��
2018/04/06,00:40,0.329,0.211,0.342,0.326,0.305,0.168,0.101,��쐼,3.6,��
2018/04/06,00:50,0.329,0.211,0.340,0.326,0.307,0.168,0.101,��쐼,2.8,��
2018/04/06,01:00,0.328,0.210,0.343,0.323,0.306,0.168,0.102,��,2.4,��
2018/04/06,01:10,0.328,0.211,0.340,0.324,0.308,0.168,0.101,��,2.2,�L
2018/04/06,01:20,0.327,0.212,0.342,0.325,0.306,0.169,0.101,��,3.0,�L
2018/04/06,01:30,0.328,0.210,0.342,0.326,0.308,0.168,0.102,��,3.8,�L
2018/04/06,01:40,0.329,0.212,0.340,0.326,0.306,0.169,0.102,��,4.5,�L
2018/04/06,01:50,0.329,0.210,0.342,0.324,0.306,0.169,0.102,��,5.0,�L
2018/04/06,02:00,0.328,0.213,0.343,0.327,0.307,0.169,0.101,��,5.2,�L
2018/04/06,02:10,0.329,0.212,0.343,0.326,0.306,0.169,0.102,��,3.8,�L
2018/04/06,02:20,0.330,0.210,0.343,0.325,0.307,0.169,0.102,��,3.4,�L
2018/04/06,02:30,0.328,0.211,0.342,0.326,0.307,0.170,0.102,��,2.6,�L
2018/04/06,02:40,0.327,0.212,0.343,0.325,0.307,0.169,0.103,��쓌,0.9,�L
2018/04/06,02:50,0.329,0.212,0.341,0.326,0.308,0.170,0.102,��쓌,3.4,�L
2018/04/06,03:00,0.328,0.213,0.342,0.324,0.306,0.169,0.102,��쓌,4.2,�L
2018/04/06,03:10,0.328,0.212,0.343,0.325,0.306,0.169,0.102,��쓌,2.8,�L
2018/04/06,03:20,0.330,0.211,0.343,0.324,0.306,0.170,0.102,-,CALM,��
2018/04/06,03:30,0.326,0.212,0.340,0.326,0.306,0.169,0.102,��쓌,1.7,��
2018/04/06,03:40,0.329,0.211,0.343,0.324,0.308,0.169,0.102,��쓌,2.3,��
2018/04/06,03:50,0.328,0.211,0.342,0.323,0.305,0.169,0.101,��쓌,2.0,��
2018/04/06,04:00,0.326,0.211,0.341,0.325,0.306,0.169,0.101,�k,1.1,��
2018/04/06,04:10,0.328,0.211,0.342,0.325,0.306,0.169,0.102,�k,1.5,��
2018/04/06,04:20,0.328,0.211,0.339,0.323,0.306,0.168,0.101,�k,2.9,��
2018/04/06,04:30,0.328,0.211,0.341,0.325,0.307,0.170,0.101,�k�k��,2.9,��
2018/04/06,04:40,0.329,0.211,0.342,0.324,0.306,0.168,0.101,�k,2.6,��
2018/04/06,04:50,0.327,0.210,0.340,0.324,0.305,0.168,0.102,�k,2.9,��
2018/04/06,05:00,0.328,0.211,0.342,0.326,0.307,0.167,0.101,�k,3.4,��
2018/04/06,05:10,0.327,0.211,0.342,0.323,0.305,0.168,0.101,�k,3.6,��
2018/04/06,05:20,0.327,0.210,0.340,0.324,0.306,0.169,0.101,�k,3.8,��
2018/04/06,05:30,0.328,0.210,0.342,0.325,0.306,0.170,0.101,�k,3.6,��
2018/04/06,05:40,0.328,0.210,0.340,0.323,0.305,0.167,0.102,�k,4.5,��
2018/04/06,05:50,0.329,0.210,0.340,0.324,0.307,0.169,0.101,�k,4.0,��
2018/04/06,06:00,0.328,0.210,0.341,0.324,0.306,0.168,0.102,�k,3.8,��
2018/04/06,06:10,0.328,0.210,0.340,0.323,0.305,0.167,0.102,�k,1.6,��
2018/04/06,06:20,0.326,0.211,0.340,0.325,0.307,0.167,0.101,�k,3.0,��
2018/04/06,06:30,0.328,0.211,0.341,0.325,0.305,0.167,0.101,�k,3.2,��
2018/04/06,06:40,0.327,0.210,0.340,0.323,0.306,0.168,0.102,�k,2.2,��
2018/04/06,06:50,0.327,0.212,0.342,0.324,0.306,0.168,0.101,�k,0.8,��
2018/04/06,07:00,0.328,0.209,0.340,0.323,0.304,0.169,0.101,�쐼,1.1,��
2018/04/06,07:10,0.327,0.210,0.339,0.324,0.308,0.168,0.101,�k,0.8,��
2018/04/06,07:20,0.327,0.211,0.343,0.325,0.306,0.169,0.101,�k�k��,1.9,��
2018/04/06,07:30,0.328,0.211,0.340,0.323,0.305,0.167,0.102,�k,3.0,��
2018/04/06,07:40,0.326,0.210,0.341,0.325,0.307,0.167,0.101,�k�k��,2.8,��
2018/04/06,07:50,0.327,0.210,0.343,0.324,0.305,0.168,0.100,�k�k��,3.0,��
2018/04/06,08:00,0.327,0.210,0.339,0.323,0.307,0.168,0.101,�k,3.1,��
2018/04/06,08:10,0.328,0.212,0.341,0.324,0.306,0.169,0.101,�k,2.7,��
2018/04/06,08:20,0.329,0.211,0.342,0.324,0.305,0.169,0.102,�k�k��,2.2,��
2018/04/06,08:30,0.327,0.211,0.340,0.323,0.307,0.168,0.101,�k�k��,4.2,��
2018/04/06,08:40,0.328,0.211,0.341,0.323,0.303,0.167,0.101,�k,3.8,��
2018/04/06,08:50,0.328,0.209,0.340,0.325,0.307,0.167,0.101,�k�k��,3.7,��
2018/04/06,09:00,0.327,0.211,0.342,0.326,0.306,0.168,0.101,�k�k��,3.7,��
2018/04/06,09:10,0.330,0.211,0.341,0.323,0.306,0.169,0.101,�k�k��,4.3,��
2018/04/06,09:20,0.328,0.210,0.340,0.325,0.307,0.169,0.101,�k�k��,4.4,��
2018/04/06,09:30,0.327,0.212,0.342,0.325,0.305,0.168,0.101,�k�k��,3.6,��
2018/04/06,09:40,0.329,0.211,0.341,0.324,0.308,0.167,0.101,�k�k��,3.9,��
2018/04/06,09:50,0.327,0.210,0.340,0.325,0.307,0.169,0.101,�k�k��,3.2,��
2018/04/06,10:00,0.327,0.211,0.341,0.323,0.307,0.168,0.101,�k�k��,2.4,��
2018/04/06,10:10,0.328,0.212,0.340,0.323,0.306,0.169,0.101,�k�k��,2.9,��
2018/04/06,10:20,0.328,0.210,0.342,0.326,0.305,0.168,0.102,�k�k��,3.4,��
2018/04/06,10:30,0.328,0.210,0.342,0.323,0.307,0.169,0.101,�k�k��,4.1,��
2018/04/06,10:40,0.329,0.211,0.340,0.324,0.307,0.167,0.101,�k�k��,3.8,��
2018/04/06,10:50,0.328,0.211,0.341,0.324,0.308,0.168,0.101,�k�k��,3.9,��
2018/04/06,11:00,0.328,0.211,0.340,0.323,0.305,0.168,0.102,�k,2.4,��
2018/04/06,11:10,0.327,0.210,0.342,0.326,0.306,0.169,0.101,�k�k��,1.3,��
2018/04/06,11:20,0.326,0.209,0.341,0.322,0.306,0.168,0.102,�k�k��,2.6,��
2018/04/06,11:30,0.329,0.210,0.340,0.324,0.304,0.168,0.101,�k�k��,2.0,��
2018/04/06,11:40,0.328,0.210,0.342,0.322,0.306,0.167,0.101,�k,2.1,��
2018/04/06,11:50,0.328,0.210,0.339,0.324,0.305,0.168,0.101,�k�k��,0.9,��
2018/04/06,12:00,0.330,0.210,0.342,0.323,0.306,0.168,0.101,�k�k��,1.2,��
2018/04/06,12:10,0.327,0.211,0.341,0.325,0.305,0.168,0.100,�k��,1.1,��
2018/04/06,12:20,0.329,0.211,0.341,0.324,0.306,0.168,0.101,���쓌,1.2,��
2018/04/06,12:30,0.327,0.211,0.340,0.325,0.307,0.167,0.101,�쓌,1.3,��
2018/04/06,12:40,0.327,0.210,0.342,0.323,0.303,0.167,0.101,��쓌,1.5,��
2018/04/06,12:50,0.328,0.210,0.340,0.325,0.307,0.168,0.101,��,1.7,��
2018/04/06,13:00,0.328,0.210,0.340,0.322,0.305,0.169,0.102,���쓌,1.8,��
2018/04/06,13:10,0.328,0.210,0.341,0.323,0.305,0.169,0.101,��쓌,1.5,��
2018/04/06,13:20,0.326,0.212,0.339,0.323,0.306,0.167,0.101,�쓌,1.2,��
2018/04/06,13:30,0.329,0.211,0.341,0.325,0.305,0.169,0.100,��,1.0,��
2018/04/06,13:40,0.328,0.212,0.341,0.324,0.307,0.167,0.101,�k��,1.4,��
2018/04/06,13:50,0.328,0.211,0.342,0.325,0.305,0.169,0.102,�쓌,1.3,��
2018/04/06,14:00,0.327,0.211,0.340,0.323,0.309,0.168,0.101,�k��,1.3,��
2018/04/06,14:10,0.328,0.212,0.340,0.325,0.304,0.169,0.101,��쐼,1.1,��
2018/04/06,14:20,0.330,0.211,0.341,0.324,0.309,0.168,0.101,�쓌,0.7,��
2018/04/06,14:30,0.327,0.211,0.341,0.326,0.306,0.168,0.101,�k�k��,0.7,��
2018/04/06,14:40,0.328,0.211,0.343,0.325,0.308,0.169,0.101,-,CALM,��
2018/04/06,14:50,0.328,0.211,0.340,0.325,0.307,0.168,0.102,-,CALM,�L
2018/04/06,15:00,0.326,0.212,0.345,0.325,0.307,0.168,0.102,���k��,0.7,�L
2018/04/06,15:10,0.329,0.211,0.341,0.325,0.306,0.168,0.102,���k��,1.6,��
2018/04/06,15:20,0.328,0.212,0.343,0.326,0.307,0.169,0.101,�k�k��,2.9,��
2018/04/06,15:30,0.328,0.212,0.342,0.323,0.308,0.168,0.101,�k,3.6,��
2018/04/06,15:40,0.330,0.212,0.340,0.325,0.305,0.168,0.101,�k,2.9,��
2018/04/06,15:50,0.327,0.212,0.342,0.325,0.308,0.169,0.101,�k,4.5,��
2018/04/06,16:00,0.328,0.210,0.341,0.323,0.306,0.168,0.100,�k,5.6,��
2018/04/06,16:10,0.329,0.213,0.343,0.324,0.309,0.168,0.101,�k,6.0,��
2018/04/06,16:20,0.328,0.211,0.343,0.323,0.306,0.168,0.101,�k,4.9,��
2018/04/06,16:30,0.328,0.210,0.341,0.326,0.306,0.168,0.101,�k,5.8,��
2018/04/06,16:40,0.327,0.212,0.344,0.324,0.308,0.169,0.102,�k,6.0,��
2018/04/06,16:50,0.329,0.212,0.342,0.325,0.305,0.168,0.102,�k,6.2,��
2018/04/06,17:00,0.328,0.211,0.341,0.326,0.307,0.167,0.102,�k,5.3,��
2018/04/06,17:10,0.328,0.211,0.342,0.324,0.305,0.169,0.101,�k,6.4,��
2018/04/06,17:20,0.327,0.210,0.341,0.326,0.308,0.168,0.102,�k,6.7,��
2018/04/06,17:30,0.328,0.212,0.342,0.325,0.307,0.168,0.101,�k,7.0,��
2018/04/06,17:40,0.328,0.211,0.342,0.324,0.306,0.168,0.102,�k,8.1,��
2018/04/06,17:50,0.328,0.211,0.342,0.325,0.308,0.168,0.101,�k,9.2,��
2018/04/06,18:00,0.327,0.211,0.343,0.325,0.305,0.169,0.101,�k,8.4,��
2018/04/06,18:10,0.328,0.212,0.342,0.325,0.307,0.170,0.102,�k,8.1,��
2018/04/06,18:20,0.330,0.210,0.341,0.325,0.309,0.168,0.101,�k,8.1,�L
2018/04/06,18:30,0.329,0.211,0.343,0.325,0.307,0.169,0.101,�k,7.8,��
2018/04/06,18:40,0.328,0.212,0.342,0.324,0.307,0.169,0.101,�k,8.2,��
2018/04/06,18:50,0.330,0.212,0.340,0.326,0.309,0.168,0.101,�k�k��,8.1,��
2018/04/06,19:00,0.329,0.212,0.342,0.325,0.305,0.169,0.102,�k,7.4,��
2018/04/06,19:10,0.328,0.212,0.342,0.326,0.308,0.170,0.100,�k,7.9,��
2018/04/06,19:20,0.329,0.211,0.341,0.325,0.307,0.169,0.102,�k�k��,6.2,��
2018/04/06,19:30,0.328,0.212,0.341,0.323,0.306,0.169,0.102,�k,7.0,��
2018/04/06,19:40,0.327,0.211,0.341,0.326,0.309,0.168,0.102,�k,7.8,�L
2018/04/06,19:50,0.328,0.211,0.341,0.325,0.307,0.170,0.102,�k,6.7,�L
2018/04/06,20:00,0.328,0.212,0.344,0.325,0.307,0.169,0.101,�k�k��,6.1,�L
2018/04/06,20:10,0.328,0.212,0.343,0.325,0.307,0.169,0.101,�k,7.8,�L
2018/04/06,20:20,0.329,0.211,0.342,0.326,0.308,0.169,0.101,�k�k��,7.6,�L
2018/04/06,20:30,0.328,0.212,0.342,0.325,0.307,0.169,0.102,�k�k��,6.8,�L
2018/04/06,20:40,0.327,0.212,0.343,0.325,0.306,0.168,0.103,�k�k��,7.9,�L
2018/04/06,20:50,0.328,0.212,0.341,0.325,0.306,0.170,0.102,�k�k��,9.5,�L
2018/04/06,21:00,0.327,0.211,0.341,0.325,0.305,0.169,0.102,�k�k��,9.2,�L
2018/04/06,21:10,0.329,0.213,0.342,0.325,0.308,0.169,0.102,�k�k��,8.2,�L
2018/04/06,21:20,0.328,0.210,0.341,0.324,0.307,0.168,0.101,�k�k��,9.2,�L
2018/04/06,21:30,0.329,0.213,0.341,0.324,0.306,0.168,0.102,�k�k��,8.9,��
2018/04/06,21:40,0.327,0.212,0.341,0.324,0.307,0.168,0.102,�k,9.2,��
2018/04/06,21:50,0.328,0.210,0.340,0.324,0.307,0.168,0.101,�k�k��,8.6,��
2018/04/06,22:00,0.327,0.211,0.342,0.323,0.305,0.168,0.102,�k,8.8,��
2018/04/06,22:10,0.327,0.210,0.342,0.324,0.308,0.168,0.101,�k�k��,8.7,��
2018/04/06,22:20,0.327,0.210,0.342,0.323,0.305,0.170,0.101,�k�k��,7.9,��
2018/04/06,22:30,0.328,0.210,0.342,0.324,0.305,0.168,0.101,�k�k��,8.6,��
2018/04/06,22:40,0.328,0.211,0.343,0.324,0.308,0.168,0.101,�k�k��,8.7,�L
2018/04/06,22:50,0.329,0.210,0.342,0.324,0.304,0.168,0.101,�k,10.0,�L
2018/04/06,23:00,0.329,0.211,0.341,0.323,0.307,0.168,0.102,�k�k��,9.5,�L
2018/04/06,23:10,0.328,0.212,0.342,0.325,0.307,0.169,0.102,�k�k��,9.8,�L
2018/04/06,23:20,0.327,0.212,0.341,0.323,0.304,0.170,0.103,�k�k��,9.6,�L
2018/04/06,23:30,0.326,0.210,0.338,0.320,0.303,0.169,0.103,�k,8.2,�L
2018/04/06,23:40,0.323,0.210,0.338,0.318,0.303,0.169,0.102,�k,7.1,�L
2018/04/06,23:50,0.324,0.210,0.337,0.320,0.302,0.167,0.104,�k,7.3,�L
